Simultaneous Nadir Overpasses (SNOs) Predictions

Prediction of SNOs between GOES-16 and TERRA Satellite Orbit:

Table of predicted SNOs for the next 14.0 days since TLE Epoch: 4/4/2020
Index Date Time (GOES-16) GOES-16 Lat,Lon TERRA Lat,Lon Distance(km) Time Diff (sec)
1 04/04/2020 03:28:44 0.00, -75.13 0.12, -74.68 52.77 1
2 04/06/2020 03:15:12 -0.00, -75.17 0.72, -71.71 393.46 80
3 04/06/2020 15:36:28 -0.00, -75.20 0.33, -76.87 189.05 80
4 04/08/2020 15:26:55 0.00, -75.25 -0.28, -73.90 152.60 80
5 04/09/2020 03:48:19 -0.00, -75.23 -0.81, -79.10 438.71 80
6 04/10/2020 15:14:43 0.00, -75.29 -0.95, -70.95 494.64 80
7 04/11/2020 03:36:06 -0.00, -75.28 -0.20, -76.13 96.66 80
8 04/13/2020 03:21:14 0.00, -75.33 0.48, -73.17 245.72 80
9 04/13/2020 15:42:29 -0.01, -75.37 0.63, -78.33 336.65 80
10 04/15/2020 15:32:57 -0.02, -75.43 -0.05, -75.37 6.68 80
11 04/17/2020 15:20:44 -0.02, -75.49 -0.67, -72.41 350.50 80




NCC Satellite Simultaneous Nadir Overpasses (SNOs) Prediction Service
